Regional Weather Roundup
Issued by NWS

Home | Current Version | Previous Version | Graphics & Text | Print | Product List | Glossary On
Versions: 1 2 3 4 5 6 7 8 9 10 11 12 13 14 15 16 17 18 19 20 21 22 23 24 25 26 27 28 29 30 31 32 33 34 35 36 37 38 39 40 41 42 43 44 45 46 47 48 49 50
418
ASUS45 KABQ 140701
RWRNM
NEW MEXICO REGIONAL WEATHER ROUNDUP
NATIONAL WEATHER SERVICE ALBUQUERQUE NM
1200 AM MST THU DEC 14 2017

NOTE: "FAIR" MEANS FEW OR NO CLOUDS BELOW 12,000 FEET AGL WITH NO
       SIGNIFICANT WEATHER OR OBSTRUCTIONS TO VISION.

      THIS PRODUCT IS RELEASED AS TWO VERSIONS.  ONE VERSION NEAR
      THE TOP OF THE HOUR CONTAINING PRELIMINARY DATA FROM ALBUQUERQUE
      AND OTHER STATIONS.  A FINAL VERSION WITH ADDITIONAL DATA IS
      ISSUED ABOUT 10 MINUTES AFTER THE HOUR.

NMZ501-503-504-510>518-140800-
NORTHWEST PLATEAU/NORTHCENTRAL MOUNTAINS

CITY           SKY/WX    TMP DP  RH WIND       PRES   REMARKS
FARMINGTON     FAIR      29   5  36 S3        30.00S
LOS ALAMOS     CLOUDY    39   6  25 S6        30.03F WCI  35
SANTA FE       FAIR      30   7  37 CALM      30.02F
TAOS           CLOUDY    30   8  39 E9        30.05S WCI  22
ANGEL FIRE     CLOUDY    25  11  55 NE9       30.05S WCI  15

$$
NMZ402-403-502-505>509-140800-
WESTCENTRAL MOUNTAINS/SOUTHWEST MOUNTAINS

CITY           SKY/WX    TMP DP  RH WIND       PRES   REMARKS
GALLUP         FAIR      22  -1  36 CALM      30.05F
GRANTS         FAIR      16  -2  45 NW6       30.07F WCI   7
SILVER CITY    FAIR      29  15  56 NW6       30.02F WCI  23

$$
NMZ407-409-411-412-140800-
SOUTHERN DESERTS

CITY           SKY/WX    TMP DP  RH WIND       PRES   REMARKS
DEMING         FAIR      35  14  42 SW7       29.99F WCI  29
LAS CRUCES     FAIR      40  21  47 SE5       30.00F
HOLLOMAN AFB   FAIR      29   3  32 N5        30.01F WCI  24
ALAMOGORDO     FAIR      36   5  27 CALM      29.99F
T OR C         FAIR      38   5  25 N7        29.99F WCI  33

$$
NMZ519>523-140800-
CENTRAL VALLEYS/CENTRAL HIGHLANDS

CITY           SKY/WX    TMP DP  RH WIND       PRES   REMARKS
ALBUQUERQUE    FAIR      35   7  31 N7        30.01F WCI  29
MORIARTY ARPT  FAIR      15   1  52 NW5       30.05S WCI   8
CLINES CORNERS FAIR      33   5  30 VRB5      30.04F WCI  29
BELEN          FAIR      28   3  34 N5        30.01F WCI  22
SOCORRO        NOT AVBL

$$
NMZ524>526-539-540-140800-
SOUTHCENTRAL MOUNTAINS

CITY           SKY/WX    TMP DP  RH WIND       PRES   REMARKS
RUIDOSO        FAIR      32   3  29 CALM      30.05F

$$
NMZ527>531-140800-
NORTHEAST HIGHLANDS/NORTHEAST PLAINS

CITY           SKY/WX    TMP DP  RH WIND       PRES   REMARKS
LAS VEGAS      FAIR      32   9  38 SW7       30.03F WCI  26
RATON          CLOUDY    35   9  33 N6        30.07R WCI  30
CLAYTON        CLOUDY    38  14  37 N10       30.05R WCI  31

$$
NMZ532>537-140800-
EASTCENTRAL PLAINS

CITY           SKY/WX    TMP DP  RH WIND       PRES   REMARKS
SANTA ROSA     FAIR      31   9  40 CALM      30.00F
TUCUMCARI      FAIR      27  11  51 CALM      29.98F
CANNON AFB     NOT AVBL
CLOVIS AIRPORT FAIR      29  15  56 N12       30.00F WCI  19

$$
NMZ028-029-538-140800-
SOUTHEAST PLAINS

CITY           SKY/WX    TMP DP  RH WIND       PRES   REMARKS
ROSWELL        FAIR      36  11  35 NW7       29.98F WCI  30
ARTESIA        FAIR      37  10  32 NW12      29.98F WCI  30
CARLSBAD       FAIR      41  19  41 NW9       29.96S


$$




USA.gov is the U.S. government's official web portal to all federal, state and local government web resources and services.